Time,TemperatureF,DewpointF,PressureIn,WindDirection,WindDirectionDegrees,WindSpeedMPH,WindSpeedGustMPH,Humidity,HourlyPrecipIn,Conditions,Clouds,dailyrainin,SoftwareType,DateUTC
2013-04-07 00:01:00,38.5,32.9,28.44,NW,323,5.0,8.1,80,0.00,,,-99.99,FreeWX-Wi 1.01,2013-04-07 05:01:00,
2013-04-07 00:06:00,38.5,32.9,28.44,NW,322,5.0,6.7,80,0.00,,,-99.99,FreeWX-Wi 1.01,2013-04-07 05:06:00,
2013-04-07 00:11:00,38.3,33.3,28.44,NW,322,5.0,5.8,82,0.00,,,-99.99,FreeWX-Wi 1.01,2013-04-07 05:11:00,
2013-04-07 00:16:00,38.3,33.6,28.44,NW,322,4.0,4.5,83,0.00,,,-99.99,FreeWX-Wi 1.01,2013-04-07 05:16:00,
2013-04-07 00:21:00,38.5,33.8,28.44,NW,321,4.0,5.4,83,0.00,,,-99.99,FreeWX-Wi 1.01,2013-04-07 05:21:00,
2013-04-07 00:27:00,38.3,34.0,28.44,NW,321,4.0,5.4,84,0.00,,,-99.99,FreeWX-Wi 1.01,2013-04-07 05:27:00,
2013-04-07 00:32:00,38.5,33.4,28.44,NW,320,3.0,6.3,82,0.00,,,-99.99,FreeWX-Wi 1.01,2013-04-07 05:32:00,
2013-04-07 00:37:00,37.9,32.9,28.44,NW,320,3.0,5.4,82,0.00,,,-99.99,FreeWX-Wi 1.01,2013-04-07 05:37:00,
2013-04-07 00:42:00,37.8,33.6,28.44,NW,318,4.0,6.7,85,0.00,,,-99.99,FreeWX-Wi 1.01,2013-04-07 05:42:00,
2013-04-07 00:47:00,37.6,33.3,28.44,NW,316,4.0,6.3,84,0.00,,,-99.99,FreeWX-Wi 1.01,2013-04-07 05:47:00,
2013-04-07 00:52:00,37.4,33.3,28.44,NW,314,4.0,6.3,85,0.00,,,-99.99,FreeWX-Wi 1.01,2013-04-07 05:52:00,
2013-04-07 00:57:00,37.0,33.3,28.44,NW,313,4.0,6.3,86,0.00,,,-99.99,FreeWX-Wi 1.01,2013-04-07 05:57:00,
2013-04-07 01:02:00,36.9,33.1,28.44,NW,312,4.0,8.1,86,0.00,,,-99.99,FreeWX-Wi 1.01,2013-04-07 06:02:00,
2013-04-07 01:07:00,36.5,32.7,28.44,NW,312,4.0,8.1,86,0.00,,,-99.99,FreeWX-Wi 1.01,2013-04-07 06:07:00,
2013-04-07 01:12:00,36.0,32.5,28.44,NW,313,4.0,5.4,87,0.00,,,-99.99,FreeWX-Wi 1.01,2013-04-07 06:12:00,
2013-04-07 01:17:00,35.6,32.4,28.44,NW,314,4.0,4.0,88,0.00,,,-99.99,FreeWX-Wi 1.01,2013-04-07 06:17:00,
2013-04-07 01:22:00,35.2,32.5,28.44,NW,314,4.0,6.3,90,0.00,,,-99.99,FreeWX-Wi 1.01,2013-04-07 06:22:00,
2013-04-07 01:28:00,35.1,32.9,28.44,NW,313,4.0,6.3,92,0.00,,,-99.99,FreeWX-Wi 1.01,2013-04-07 06:28:00,
2013-04-07 01:33:00,35.1,32.9,28.44,NW,313,3.0,4.9,92,0.00,,,-99.99,FreeWX-Wi 1.01,2013-04-07 06:33:00,
2013-04-07 01:38:00,35.1,32.9,28.44,NW,313,3.0,5.4,92,0.00,,,-99.99,FreeWX-Wi 1.01,2013-04-07 06:38:00,
2013-04-07 01:43:00,34.9,32.5,28.44,NW,311,3.0,5.4,91,0.00,,,-99.99,FreeWX-Wi 1.01,2013-04-07 06:43:00,
2013-04-07 01:48:00,34.9,32.5,28.44,NW,311,3.0,4.0,91,0.00,,,-99.99,FreeWX-Wi 1.01,2013-04-07 06:48:00,
2013-04-07 01:53:00,34.9,32.7,28.44,NW,314,3.0,5.8,92,0.00,,,-99.99,FreeWX-Wi 1.01,2013-04-07 06:53:00,
2013-04-07 01:58:00,34.9,32.7,28.44,NW,316,3.0,6.3,92,0.00,,,-99.99,FreeWX-Wi 1.01,2013-04-07 06:58:00,
2013-04-07 02:09:00,34.9,33.1,28.44,NW,317,4.0,5.4,93,0.00,,,-99.99,FreeWX-Wi 1.01,2013-04-07 07:09:00,
2013-04-07 02:14:00,34.7,32.9,28.44,NW,318,4.0,5.4,93,0.00,,,-99.99,FreeWX-Wi 1.01,2013-04-07 07:14:00,
2013-04-07 02:19:00,34.5,32.9,28.44,NW,320,4.0,6.3,94,0.00,,,-99.99,FreeWX-Wi 1.01,2013-04-07 07:19:00,
2013-04-07 02:24:00,34.5,33.3,28.44,NW,321,4.0,6.3,95,0.00,,,-99.99,FreeWX-Wi 1.01,2013-04-07 07:24:00,
2013-04-07 02:29:00,34.5,33.4,28.44,NW,322,4.0,6.3,96,0.00,,,-99.99,FreeWX-Wi 1.01,2013-04-07 07:29:00,
2013-04-07 02:34:00,34.5,33.4,28.44,NW,323,4.0,6.3,96,0.00,,,-99.99,FreeWX-Wi 1.01,2013-04-07 07:34:00,
2013-04-07 02:40:00,34.5,33.4,28.44,NW,323,4.0,6.3,96,0.00,,,-99.99,FreeWX-Wi 1.01,2013-04-07 07:40:00,
2013-04-07 02:45:00,34.5,33.8,28.44,NW,321,4.0,7.2,97,0.00,,,-99.99,FreeWX-Wi 1.01,2013-04-07 07:45:00,
2013-04-07 02:50:00,34.5,33.8,28.47,NW,318,4.0,5.8,97,0.00,,,-99.99,FreeWX-Wi 1.01,2013-04-07 07:50:00,
2013-04-07 02:55:00,34.5,33.8,28.47,NW,317,4.0,6.7,97,0.00,,,-99.99,FreeWX-Wi 1.01,2013-04-07 07:55:00,
2013-04-07 03:00:00,34.5,33.8,28.47,NW,316,4.0,4.9,97,0.00,,,-99.99,FreeWX-Wi 1.01,2013-04-07 08:00:00,
2013-04-07 03:05:00,34.5,34.0,28.47,NW,316,4.0,5.4,98,0.00,,,-99.99,FreeWX-Wi 1.01,2013-04-07 08:05:00,
2013-04-07 03:10:00,34.3,33.8,28.47,NW,315,4.0,8.1,98,0.00,,,-99.99,FreeWX-Wi 1.01,2013-04-07 08:10:00,
2013-04-07 03:15:00,34.3,33.8,28.47,NW,314,4.0,8.3,98,0.00,,,-99.99,FreeWX-Wi 1.01,2013-04-07 08:15:00,
2013-04-07 03:20:00,34.3,33.8,28.47,NW,312,4.0,7.2,98,0.00,,,-99.99,FreeWX-Wi 1.01,2013-04-07 08:20:00,
2013-04-07 03:25:00,34.3,33.8,28.47,NW,310,4.0,7.2,98,0.00,,,-99.99,FreeWX-Wi 1.01,2013-04-07 08:25:00,
2013-04-07 03:30:00,34.3,33.8,28.47,NW,307,4.0,6.3,98,0.00,,,-99.99,FreeWX-Wi 1.01,2013-04-07 08:30:00,
2013-04-07 03:35:00,34.2,33.6,28.47,NW,304,4.0,5.8,98,0.00,,,-99.99,FreeWX-Wi 1.01,2013-04-07 08:35:00,
2013-04-07 03:41:00,34.3,33.8,28.47,WNW,303,4.0,6.3,98,0.00,,,-99.99,FreeWX-Wi 1.01,2013-04-07 08:41:00,
2013-04-07 03:46:00,34.3,33.8,28.47,WNW,302,4.0,6.3,98,0.00,,,-99.99,FreeWX-Wi 1.01,2013-04-07 08:46:00,
2013-04-07 03:51:00,34.3,33.8,28.47,WNW,303,4.0,6.3,98,0.00,,,-99.99,FreeWX-Wi 1.01,2013-04-07 08:51:00,
2013-04-07 04:01:00,34.2,33.6,28.47,WNW,301,4.0,8.7,98,0.00,,,-99.99,FreeWX-Wi 1.01,2013-04-07 09:01:00,
2013-04-07 04:06:00,34.2,33.6,28.47,WNW,299,3.0,3.1,98,0.00,,,-99.99,FreeWX-Wi 1.01,2013-04-07 09:06:00,
2013-04-07 04:17:00,34.2,33.6,28.47,WNW,293,2.0,5.8,98,0.00,,,-99.99,FreeWX-Wi 1.01,2013-04-07 09:17:00,
2013-04-07 04:22:00,34.2,33.6,28.47,WNW,293,2.0,4.9,98,0.00,,,-99.99,FreeWX-Wi 1.01,2013-04-07 09:22:00,
2013-04-07 04:27:00,34.2,33.6,28.47,WNW,296,1.0,4.9,98,0.00,,,-99.99,FreeWX-Wi 1.01,2013-04-07 09:27:00,
2013-04-07 04:32:00,34.2,33.6,28.47,WNW,299,2.0,3.1,98,0.00,,,-99.99,FreeWX-Wi 1.01,2013-04-07 09:32:00,
2013-04-07 04:37:00,34.2,33.6,28.47,NW,304,2.0,4.0,98,0.00,,,-99.99,FreeWX-Wi 1.01,2013-04-07 09:37:00,
2013-04-07 04:42:00,34.2,33.6,28.47,NW,308,2.0,3.6,98,0.00,,,-99.99,FreeWX-Wi 1.01,2013-04-07 09:42:00,
2013-04-07 04:47:00,34.2,33.6,28.47,NW,310,2.0,4.5,98,0.00,,,-99.99,FreeWX-Wi 1.01,2013-04-07 09:47:00,
2013-04-07 04:52:00,34.2,33.6,28.47,NW,310,2.0,3.6,98,0.00,,,-99.99,FreeWX-Wi 1.01,2013-04-07 09:52:00,
2013-04-07 04:58:00,34.2,33.6,28.47,NW,312,2.0,4.9,98,0.00,,,-99.99,FreeWX-Wi 1.01,2013-04-07 09:58:00,
2013-04-07 05:03:00,34.2,33.6,28.47,NW,313,2.0,5.4,98,0.00,,,-99.99,FreeWX-Wi 1.01,2013-04-07 10:03:00,
2013-04-07 05:08:00,34.2,33.6,28.47,NW,316,2.0,4.0,98,0.00,,,-99.99,FreeWX-Wi 1.01,2013-04-07 10:08:00,
2013-04-07 05:13:00,34.0,33.4,28.47,NW,320,2.0,5.4,98,0.00,,,-99.99,FreeWX-Wi 1.01,2013-04-07 10:13:00,
2013-04-07 05:18:00,34.2,33.6,28.47,NW,325,2.0,5.8,98,0.00,,,-99.99,FreeWX-Wi 1.01,2013-04-07 10:18:00,
2013-04-07 05:23:00,34.0,33.4,28.47,NW,326,3.0,6.3,98,0.00,,,-99.99,FreeWX-Wi 1.01,2013-04-07 10:23:00,
2013-04-07 05:28:00,34.0,33.4,28.47,NNW,327,3.0,5.4,98,0.00,,,-99.99,FreeWX-Wi 1.01,2013-04-07 10:28:00,
2013-04-07 05:33:00,34.0,33.4,28.47,NW,326,3.0,4.9,98,0.00,,,-99.99,FreeWX-Wi 1.01,2013-04-07 10:33:00,
2013-04-07 05:39:00,34.0,33.4,28.47,NW,326,3.0,4.9,98,0.00,,,-99.99,FreeWX-Wi 1.01,2013-04-07 10:39:00,
2013-04-07 05:44:00,34.0,33.4,28.47,NW,325,3.0,4.0,98,0.00,,,-99.99,FreeWX-Wi 1.01,2013-04-07 10:44:00,
2013-04-07 05:49:00,34.0,33.4,28.47,NW,324,3.0,3.6,98,0.00,,,-99.99,FreeWX-Wi 1.01,2013-04-07 10:49:00,
2013-04-07 05:54:00,34.0,33.4,28.47,NW,323,2.0,5.8,98,0.00,,,-99.99,FreeWX-Wi 1.01,2013-04-07 10:54:00,
2013-04-07 06:04:00,33.8,33.3,28.47,NW,321,2.0,4.5,98,0.00,,,-99.99,FreeWX-Wi 1.01,2013-04-07 11:04:00,
2013-04-07 06:09:00,33.8,33.3,28.47,NW,320,2.0,3.6,98,0.00,,,-99.99,FreeWX-Wi 1.01,2013-04-07 11:09:00,
2013-04-07 06:15:00,33.8,33.3,28.47,NW,321,2.0,4.9,98,0.00,,,-99.99,FreeWX-Wi 1.01,2013-04-07 11:15:00,
2013-04-07 06:20:00,33.8,33.3,28.50,NW,322,2.0,3.6,98,0.00,,,-99.99,FreeWX-Wi 1.01,2013-04-07 11:20:00,
2013-04-07 06:25:00,33.8,33.3,28.50,NW,321,2.0,3.6,98,0.00,,,-99.99,FreeWX-Wi 1.01,2013-04-07 11:25:00,
2013-04-07 06:30:00,33.8,33.3,28.50,NW,322,2.0,4.9,98,0.00,,,-99.99,FreeWX-Wi 1.01,2013-04-07 11:30:00,
2013-04-07 06:35:00,33.8,33.3,28.50,NW,322,2.0,4.0,98,0.00,,,-99.99,FreeWX-Wi 1.01,2013-04-07 11:35:00,
2013-04-07 06:40:00,33.8,33.3,28.50,NW,322,3.0,7.6,98,0.00,,,-99.99,FreeWX-Wi 1.01,2013-04-07 11:40:00,
2013-04-07 06:45:00,33.6,32.9,28.50,NW,321,3.0,5.8,97,0.00,,,-99.99,FreeWX-Wi 1.01,2013-04-07 11:45:00,
2013-04-07 06:50:00,33.6,32.9,28.50,NW,322,3.0,5.8,97,0.00,,,-99.99,FreeWX-Wi 1.01,2013-04-07 11:50:00,
2013-04-07 06:55:00,33.6,32.5,28.50,NW,323,3.0,5.8,96,0.00,,,-99.99,FreeWX-Wi 1.01,2013-04-07 11:55:00,
2013-04-07 07:01:00,33.6,32.5,28.50,NW,324,4.0,7.2,96,0.00,,,-99.99,FreeWX-Wi 1.01,2013-04-07 12:01:00,
2013-04-07 07:06:00,33.6,32.5,28.50,NW,325,4.0,5.8,96,0.00,,,-99.99,FreeWX-Wi 1.01,2013-04-07 12:06:00,
2013-04-07 07:11:00,33.6,32.5,28.50,NW,324,4.0,5.8,96,0.00,,,-99.99,FreeWX-Wi 1.01,2013-04-07 12:11:00,
2013-04-07 07:21:00,33.6,32.0,28.52,NNW,327,4.0,6.3,94,0.00,,,-99.99,FreeWX-Wi 1.01,2013-04-07 12:21:00,
2013-04-07 07:26:00,33.6,32.0,28.52,NNW,328,4.0,6.3,94,0.00,,,-99.99,FreeWX-Wi 1.01,2013-04-07 12:26:00,
2013-04-07 07:31:00,33.6,32.0,28.52,NNW,331,4.0,6.3,94,0.00,,,-99.99,FreeWX-Wi 1.01,2013-04-07 12:31:00,
2013-04-07 07:36:00,33.6,32.0,28.52,NNW,336,5.0,6.3,94,0.00,,,-99.99,FreeWX-Wi 1.01,2013-04-07 12:36:00,
2013-04-07 07:42:00,33.6,32.0,28.52,NNW,340,5.0,6.3,94,0.00,,,-99.99,FreeWX-Wi 1.01,2013-04-07 12:42:00,
2013-04-07 07:47:00,33.6,32.4,28.52,NNW,341,5.0,7.6,95,0.00,,,-99.99,FreeWX-Wi 1.01,2013-04-07 12:47:00,
2013-04-07 07:52:00,33.6,32.0,28.52,NNW,344,5.0,8.1,94,0.00,,,-99.99,FreeWX-Wi 1.01,2013-04-07 12:52:00,
2013-04-07 07:57:00,33.4,31.8,28.52,NNW,342,5.0,6.3,94,0.00,,,-99.99,FreeWX-Wi 1.01,2013-04-07 12:57:00,
2013-04-07 08:02:00,33.4,32.2,28.52,NNW,340,5.0,8.1,95,0.00,,,-99.99,FreeWX-Wi 1.01,2013-04-07 13:02:00,
2013-04-07 08:07:00,33.4,31.8,28.52,NNW,337,5.0,5.8,94,0.00,,,-99.99,FreeWX-Wi 1.01,2013-04-07 13:07:00,
2013-04-07 08:12:00,33.6,32.0,28.52,NNW,335,4.0,5.4,94,0.00,,,-99.99,FreeWX-Wi 1.01,2013-04-07 13:12:00,
2013-04-07 08:17:00,33.6,31.8,28.52,NNW,332,4.0,6.3,93,0.00,,,-99.99,FreeWX-Wi 1.01,2013-04-07 13:17:00,
2013-04-07 08:22:00,33.8,31.6,28.52,NNW,332,4.0,4.0,92,0.00,,,-99.99,FreeWX-Wi 1.01,2013-04-07 13:22:00,
2013-04-07 08:27:00,34.0,31.8,28.52,NNW,333,4.0,4.5,92,0.00,,,-99.99,FreeWX-Wi 1.01,2013-04-07 13:27:00,
2013-04-07 08:33:00,34.0,31.8,28.55,NNW,334,3.0,4.9,92,0.00,,,-99.99,FreeWX-Wi 1.01,2013-04-07 13:33:00,
2013-04-07 08:43:00,34.3,31.5,28.55,NNW,340,3.0,5.4,89,0.00,,,-99.99,FreeWX-Wi 1.01,2013-04-07 13:43:00,
2013-04-07 08:48:00,34.5,31.6,28.55,NNW,340,3.0,6.3,89,0.00,,,-99.99,FreeWX-Wi 1.01,2013-04-07 13:48:00,
2013-04-07 08:53:00,34.7,31.5,28.55,NNW,343,3.0,5.8,88,0.00,,,-99.99,FreeWX-Wi 1.01,2013-04-07 13:53:00,
2013-04-07 08:58:00,34.9,31.5,28.55,NNW,343,3.0,4.9,87,0.00,,,-99.99,FreeWX-Wi 1.01,2013-04-07 13:58:00,
2013-04-07 09:09:00,34.9,30.0,28.55,North,349,3.0,5.4,82,0.00,,,-99.99,FreeWX-Wi 1.01,2013-04-07 14:09:00,
2013-04-07 09:14:00,35.1,29.5,28.55,North,350,3.0,5.8,80,0.00,,,-99.99,FreeWX-Wi 1.01,2013-04-07 14:14:00,
2013-04-07 09:19:00,35.4,30.2,28.55,North,349,3.0,4.9,81,0.00,,,-99.99,FreeWX-Wi 1.01,2013-04-07 14:19:00,
2013-04-07 09:29:00,35.6,29.5,28.55,North,350,3.0,4.9,78,0.00,,,-99.99,FreeWX-Wi 1.01,2013-04-07 14:29:00,
2013-04-07 09:34:00,35.8,29.3,28.58,NNW,346,3.0,5.4,77,0.00,,,-99.99,FreeWX-Wi 1.01,2013-04-07 14:34:00,
2013-04-07 09:40:00,36.0,29.1,28.58,NNW,343,3.0,5.4,76,0.00,,,-99.99,FreeWX-Wi 1.01,2013-04-07 14:40:00,
2013-04-07 09:45:00,36.0,29.5,28.58,NNW,338,2.0,3.1,77,0.00,,,-99.99,FreeWX-Wi 1.01,2013-04-07 14:45:00,
2013-04-07 09:50:00,35.6,29.1,28.58,NNW,334,2.0,4.9,77,0.00,,,-99.99,FreeWX-Wi 1.01,2013-04-07 14:50:00,
2013-04-07 09:55:00,36.0,28.8,28.58,NNW,328,2.0,3.1,75,0.00,,,-99.99,FreeWX-Wi 1.01,2013-04-07 14:55:00,
2013-04-07 10:00:00,36.3,29.5,28.58,NW,326,2.0,4.0,76,0.00,,,-99.99,FreeWX-Wi 1.01,2013-04-07 15:00:00,
2013-04-07 10:05:00,36.5,29.7,28.58,NW,326,2.0,5.4,76,0.00,,,-99.99,FreeWX-Wi 1.01,2013-04-07 15:05:00,
2013-04-07 10:10:00,36.7,29.5,28.58,NNW,330,2.0,5.8,75,0.00,,,-99.99,FreeWX-Wi 1.01,2013-04-07 15:10:00,
2013-04-07 10:16:00,36.7,29.1,28.58,NNW,336,2.0,4.0,74,0.00,,,-99.99,FreeWX-Wi 1.01,2013-04-07 15:16:00,
2013-04-07 10:21:00,36.9,29.7,28.58,NNW,345,2.0,7.2,75,0.00,,,-99.99,FreeWX-Wi 1.01,2013-04-07 15:21:00,
2013-04-07 10:26:00,37.0,29.1,28.58,North,352,3.0,5.8,73,0.00,,,-99.99,FreeWX-Wi 1.01,2013-04-07 15:26:00,
2013-04-07 10:31:00,37.2,29.7,28.58,North,2,3.0,5.4,74,0.00,,,-99.99,FreeWX-Wi 1.01,2013-04-07 15:31:00,
2013-04-07 10:36:00,37.2,29.1,28.58,North,8,3.0,5.4,72,0.00,,,-99.99,FreeWX-Wi 1.01,2013-04-07 15:36:00,
2013-04-07 10:41:00,37.6,29.1,28.58,North,9,3.0,5.8,71,0.00,,,-99.99,FreeWX-Wi 1.01,2013-04-07 15:41:00,
2013-04-07 10:46:00,37.6,28.8,28.58,North,10,3.0,5.8,70,0.00,,,-99.99,FreeWX-Wi 1.01,2013-04-07 15:46:00,
2013-04-07 10:51:00,37.8,28.6,28.58,North,10,3.0,5.4,69,0.00,,,-99.99,FreeWX-Wi 1.01,2013-04-07 15:51:00,
2013-04-07 10:56:00,38.5,29.5,28.58,North,8,3.0,5.4,70,0.00,,,-99.99,FreeWX-Wi 1.01,2013-04-07 15:56:00,
2013-04-07 11:01:00,38.8,27.0,28.58,North,2,3.0,5.4,62,0.00,,,-99.99,FreeWX-Wi 1.01,2013-04-07 16:01:00,
2013-04-07 11:06:00,38.5,27.3,28.58,North,359,2.0,4.0,64,0.00,,,-99.99,FreeWX-Wi 1.01,2013-04-07 16:06:00,
2013-04-07 11:12:00,39.2,29.1,28.58,North,2,2.0,2.7,67,0.00,,,-99.99,FreeWX-Wi 1.01,2013-04-07 16:12:00,
2013-04-07 11:17:00,39.9,29.1,28.61,NNE,12,2.0,3.1,65,0.00,,,-99.99,FreeWX-Wi 1.01,2013-04-07 16:17:00,
2013-04-07 11:22:00,40.5,28.9,28.61,NNE,28,1.0,2.7,63,0.00,,,-99.99,FreeWX-Wi 1.01,2013-04-07 16:22:00,
2013-04-07 11:27:00,40.5,29.7,28.61,NE,55,1.0,4.0,65,0.00,,,-99.99,FreeWX-Wi 1.01,2013-04-07 16:27:00,
2013-04-07 11:32:00,40.3,29.8,28.61,ENE,70,1.0,4.9,66,0.00,,,-99.99,FreeWX-Wi 1.01,2013-04-07 16:32:00,
2013-04-07 11:37:00,40.5,28.4,28.61,ESE,119,1.0,2.2,62,0.00,,,-99.99,FreeWX-Wi 1.01,2013-04-07 16:37:00,
2013-04-07 11:43:00,40.3,27.1,28.61,SW,215,1.0,2.2,59,0.00,,,-99.99,FreeWX-Wi 1.01,2013-04-07 16:43:00,
2013-04-07 11:48:00,39.7,27.3,28.61,West,265,1.0,4.0,61,0.00,,,-99.99,FreeWX-Wi 1.01,2013-04-07 16:48:00,
2013-04-07 11:53:00,39.7,27.3,28.61,NW,307,1.0,4.0,61,0.00,,,-99.99,FreeWX-Wi 1.01,2013-04-07 16:53:00,
2013-04-07 11:58:00,39.9,28.0,28.61,North,353,1.0,4.0,62,0.00,,,-99.99,FreeWX-Wi 1.01,2013-04-07 16:58:00,
2013-04-07 12:03:00,41.5,30.2,28.61,NE,43,1.0,5.8,64,0.00,,,-99.99,FreeWX-Wi 1.01,2013-04-07 17:03:00,
2013-04-07 12:08:00,43.9,30.9,28.61,ENE,77,1.0,3.1,60,0.00,,,-99.99,FreeWX-Wi 1.01,2013-04-07 17:08:00,
2013-04-07 12:13:00,45.5,28.0,28.61,East,97,1.0,3.1,50,0.00,,,-99.99,FreeWX-Wi 1.01,2013-04-07 17:13:00,
2013-04-07 12:18:00,43.7,26.8,28.61,ESE,105,2.0,4.0,51,0.00,,,-99.99,FreeWX-Wi 1.01,2013-04-07 17:18:00,
2013-04-07 12:23:00,42.6,28.4,28.61,ESE,107,2.0,5.8,57,0.00,,,-99.99,FreeWX-Wi 1.01,2013-04-07 17:23:00,
2013-04-07 12:34:00,44.6,29.5,28.58,ESE,108,2.0,6.3,55,0.00,,,-99.99,FreeWX-Wi 1.01,2013-04-07 17:34:00,
2013-04-07 12:44:00,44.8,29.7,28.58,East,98,2.0,6.3,55,0.00,,,-99.99,FreeWX-Wi 1.01,2013-04-07 17:44:00,
2013-04-07 12:49:00,44.6,28.0,28.58,East,97,2.0,5.8,52,0.00,,,-99.99,FreeWX-Wi 1.01,2013-04-07 17:49:00,
2013-04-07 12:54:00,45.1,29.1,28.58,East,99,2.0,6.3,53,0.00,,,-99.99,FreeWX-Wi 1.01,2013-04-07 17:54:00,
2013-04-07 13:00:00,45.1,28.6,28.58,East,99,2.0,5.4,52,0.00,,,-99.99,FreeWX-Wi 1.01,2013-04-07 18:00:00,
2013-04-07 13:05:00,44.8,29.7,28.58,East,90,2.0,6.3,55,0.00,,,-99.99,FreeWX-Wi 1.01,2013-04-07 18:05:00,
2013-04-07 13:10:00,44.6,31.1,28.58,ENE,78,2.0,7.6,59,0.00,,,-99.99,FreeWX-Wi 1.01,2013-04-07 18:10:00,
2013-04-07 13:15:00,45.9,31.5,28.58,ENE,73,3.0,6.3,57,0.00,,,-99.99,FreeWX-Wi 1.01,2013-04-07 18:15:00,
2013-04-07 13:20:00,46.4,32.4,28.58,ENE,74,4.0,8.1,58,0.00,,,-99.99,FreeWX-Wi 1.01,2013-04-07 18:20:00,
2013-04-07 13:25:00,47.1,31.3,28.58,ENE,74,4.0,8.3,54,0.00,,,-99.99,FreeWX-Wi 1.01,2013-04-07 18:25:00,
2013-04-07 13:30:00,47.1,32.2,28.58,ENE,77,4.0,7.6,56,0.00,,,-99.99,FreeWX-Wi 1.01,2013-04-07 18:30:00,
2013-04-07 13:35:00,47.5,31.3,28.55,ENE,76,5.0,6.3,53,0.00,,,-99.99,FreeWX-Wi 1.01,2013-04-07 18:35:00,
2013-04-07 13:40:00,47.3,29.7,28.55,East,81,5.0,8.7,50,0.00,,,-99.99,FreeWX-Wi 1.01,2013-04-07 18:40:00,
2013-04-07 13:45:00,47.5,31.6,28.55,East,82,5.0,8.7,54,0.00,,,-99.99,FreeWX-Wi 1.01,2013-04-07 18:45:00,
2013-04-07 13:50:00,47.8,32.5,28.55,East,82,5.0,8.7,55,0.00,,,-99.99,FreeWX-Wi 1.01,2013-04-07 18:50:00,
2013-04-07 13:55:00,48.6,33.6,28.55,East,86,6.0,11.0,56,0.00,,,-99.99,FreeWX-Wi 1.01,2013-04-07 18:55:00,
2013-04-07 14:01:00,49.1,31.3,28.55,East,91,6.0,8.7,50,0.00,,,-99.99,FreeWX-Wi 1.01,2013-04-07 19:01:00,
2013-04-07 14:06:00,49.8,31.5,28.55,East,101,6.0,11.0,49,0.00,,,-99.99,FreeWX-Wi 1.01,2013-04-07 19:06:00,
2013-04-07 14:11:00,50.5,31.6,28.55,ESE,106,7.0,10.1,48,0.00,,,-99.99,FreeWX-Wi 1.01,2013-04-07 19:11:00,
2013-04-07 14:16:00,50.2,30.7,28.55,ESE,112,7.0,12.8,47,0.00,,,-99.99,FreeWX-Wi 1.01,2013-04-07 19:16:00,
2013-04-07 14:21:00,49.5,31.6,28.55,ESE,119,8.0,11.0,50,0.00,,,-99.99,FreeWX-Wi 1.01,2013-04-07 19:21:00,
2013-04-07 14:26:00,50.0,32.5,28.55,ESE,121,8.0,10.5,51,0.00,,,-99.99,FreeWX-Wi 1.01,2013-04-07 19:26:00,
2013-04-07 14:31:00,50.7,31.8,28.55,SE,124,8.0,11.0,48,0.00,,,-99.99,FreeWX-Wi 1.01,2013-04-07 19:31:00,
2013-04-07 14:36:00,50.9,32.0,28.52,SE,124,8.0,11.9,48,0.00,,,-99.99,FreeWX-Wi 1.01,2013-04-07 19:36:00,
2013-04-07 14:42:00,50.9,32.0,28.52,ESE,123,8.0,11.0,48,0.00,,,-99.99,FreeWX-Wi 1.01,2013-04-07 19:42:00,
2013-04-07 14:47:00,50.2,31.3,28.52,ESE,118,8.0,11.4,48,0.00,,,-99.99,FreeWX-Wi 1.01,2013-04-07 19:47:00,
2013-04-07 14:52:00,50.7,32.7,28.52,ESE,113,8.0,11.9,50,0.00,,,-99.99,FreeWX-Wi 1.01,2013-04-07 19:52:00,
2013-04-07 14:57:00,51.4,32.4,28.52,ESE,113,8.0,12.3,48,0.00,,,-99.99,FreeWX-Wi 1.01,2013-04-07 19:57:00,
2013-04-07 15:02:00,52.9,32.7,28.52,ESE,117,8.0,12.8,46,0.00,,,-99.99,FreeWX-Wi 1.01,2013-04-07 20:02:00,
2013-04-07 15:07:00,53.6,31.6,28.52,ESE,121,8.0,13.2,43,0.00,,,-99.99,FreeWX-Wi 1.01,2013-04-07 20:07:00,
2013-04-07 15:12:00,53.1,32.9,28.52,SE,129,8.0,13.2,46,0.00,,,-99.99,FreeWX-Wi 1.01,2013-04-07 20:12:00,
2013-04-07 15:17:00,53.4,33.1,28.52,SE,136,8.0,11.0,46,0.00,,,-99.99,FreeWX-Wi 1.01,2013-04-07 20:17:00,
2013-04-07 15:22:00,53.8,31.3,28.52,SE,142,8.0,11.9,42,0.00,,,-99.99,FreeWX-Wi 1.01,2013-04-07 20:22:00,
2013-04-07 15:27:00,52.2,32.5,28.52,SE,142,9.0,13.2,47,0.00,,,-99.99,FreeWX-Wi 1.01,2013-04-07 20:27:00,
2013-04-07 15:32:00,52.7,33.1,28.52,SE,145,9.0,13.2,47,0.00,,,-99.99,FreeWX-Wi 1.01,2013-04-07 20:32:00,
2013-04-07 15:37:00,53.6,33.3,28.52,SE,146,9.0,13.2,46,0.00,,,-99.99,FreeWX-Wi 1.01,2013-04-07 20:37:00,
2013-04-07 15:42:00,53.1,32.4,28.52,SSE,148,9.0,14.5,45,0.00,,,-99.99,FreeWX-Wi 1.01,2013-04-07 20:42:00,
2013-04-07 15:48:00,53.2,33.6,28.52,SSE,149,9.0,13.2,47,0.00,,,-99.99,FreeWX-Wi 1.01,2013-04-07 20:48:00,
2013-04-07 15:53:00,52.3,32.2,28.52,SSE,151,9.0,12.8,46,0.00,,,-99.99,FreeWX-Wi 1.01,2013-04-07 20:53:00,
2013-04-07 15:58:00,52.0,32.9,28.52,SSE,152,10.0,13.2,48,0.00,,,-99.99,FreeWX-Wi 1.01,2013-04-07 20:58:00,
2013-04-07 16:03:00,51.8,33.3,28.52,SSE,150,10.0,15.0,49,0.00,,,-99.99,FreeWX-Wi 1.01,2013-04-07 21:03:00,
2013-04-07 16:08:00,51.4,33.4,28.52,SSE,152,10.0,13.2,50,0.00,,,-99.99,FreeWX-Wi 1.01,2013-04-07 21:08:00,
2013-04-07 16:13:00,52.2,33.1,28.52,SSE,151,10.0,13.6,48,0.00,,,-99.99,FreeWX-Wi 1.01,2013-04-07 21:13:00,
2013-04-07 16:18:00,53.1,34.0,28.50,SSE,151,10.0,12.8,48,0.00,,,-99.99,FreeWX-Wi 1.01,2013-04-07 21:18:00,
2013-04-07 16:23:00,53.2,33.6,28.50,SSE,147,10.0,15.4,47,0.00,,,-99.99,FreeWX-Wi 1.01,2013-04-07 21:23:00,
2013-04-07 16:34:00,53.1,34.0,28.50,SSE,151,10.0,12.8,48,0.00,,,-99.99,FreeWX-Wi 1.01,2013-04-07 21:34:00,
2013-04-07 16:39:00,53.6,33.8,28.50,SSE,154,10.0,13.2,47,0.00,,,-99.99,FreeWX-Wi 1.01,2013-04-07 21:39:00,
2013-04-07 16:55:00,53.2,34.0,28.50,SSE,158,10.0,13.6,48,0.00,,,-99.99,FreeWX-Wi 1.01,2013-04-07 21:55:00,
2013-04-07 17:00:00,53.2,35.1,28.50,SSE,154,10.0,15.0,50,0.00,,,-99.99,FreeWX-Wi 1.01,2013-04-07 22:00:00,
2013-04-07 17:05:00,53.4,34.2,28.50,SSE,151,10.0,12.8,48,0.00,,,-99.99,FreeWX-Wi 1.01,2013-04-07 22:05:00,
2013-04-07 17:10:00,53.2,34.5,28.50,SSE,150,10.0,13.2,49,0.00,,,-99.99,FreeWX-Wi 1.01,2013-04-07 22:10:00,
2013-04-07 17:15:00,54.0,35.2,28.50,SSE,150,9.0,11.9,49,0.00,,,-99.99,FreeWX-Wi 1.01,2013-04-07 22:15:00,
2013-04-07 17:20:00,54.0,34.2,28.50,SSE,148,9.0,13.2,47,0.00,,,-99.99,FreeWX-Wi 1.01,2013-04-07 22:20:00,
2013-04-07 17:25:00,53.4,34.7,28.50,SE,146,10.0,13.6,49,0.00,,,-99.99,FreeWX-Wi 1.01,2013-04-07 22:25:00,
2013-04-07 17:30:00,53.4,35.2,28.50,SE,146,10.0,12.8,50,0.00,,,-99.99,FreeWX-Wi 1.01,2013-04-07 22:30:00,
2013-04-07 17:35:00,53.2,35.1,28.50,SE,143,10.0,15.0,50,0.00,,,-99.99,FreeWX-Wi 1.01,2013-04-07 22:35:00,
2013-04-07 17:40:00,53.1,35.4,28.50,SE,140,10.0,15.4,51,0.00,,,-99.99,FreeWX-Wi 1.01,2013-04-07 22:40:00,
2013-04-07 17:46:00,52.7,35.6,28.50,SE,138,11.0,15.0,52,0.00,,,-99.99,FreeWX-Wi 1.01,2013-04-07 22:46:00,
2013-04-07 17:56:00,52.0,35.4,28.47,SE,135,11.0,15.9,53,0.00,,,-99.99,FreeWX-Wi 1.01,2013-04-07 22:56:00,
2013-04-07 18:01:00,51.8,35.2,28.47,SE,133,11.0,15.4,53,0.00,,,-99.99,FreeWX-Wi 1.01,2013-04-07 23:01:00,
2013-04-07 18:12:00,51.4,35.4,28.47,SE,127,11.0,13.2,54,0.00,,,-99.99,FreeWX-Wi 1.01,2013-04-07 23:12:00,
2013-04-07 18:17:00,51.1,35.1,28.47,SE,124,11.0,15.0,54,0.00,,,-99.99,FreeWX-Wi 1.01,2013-04-07 23:17:00,
2013-04-07 18:22:00,50.9,34.9,28.47,ESE,121,11.0,13.6,54,0.00,,,-99.99,FreeWX-Wi 1.01,2013-04-07 23:22:00,
2013-04-07 18:27:00,50.5,35.4,28.47,ESE,119,11.0,12.8,56,0.00,,,-99.99,FreeWX-Wi 1.01,2013-04-07 23:27:00,
2013-04-07 18:32:00,50.5,36.0,28.47,ESE,117,10.0,13.6,57,0.00,,,-99.99,FreeWX-Wi 1.01,2013-04-07 23:32:00,
2013-04-07 18:37:00,50.4,35.8,28.47,ESE,115,10.0,12.8,57,0.00,,,-99.99,FreeWX-Wi 1.01,2013-04-07 23:37:00,
2013-04-07 18:42:00,50.4,35.8,28.47,ESE,112,10.0,13.6,57,0.00,,,-99.99,FreeWX-Wi 1.01,2013-04-07 23:42:00,
2013-04-07 18:47:00,50.4,36.1,28.47,ESE,111,10.0,11.0,58,0.00,,,-99.99,FreeWX-Wi 1.01,2013-04-07 23:47:00,
2013-04-07 18:52:00,50.4,36.5,28.47,ESE,109,9.0,11.4,59,0.00,,,-99.99,FreeWX-Wi 1.01,2013-04-07 23:52:00,
2013-04-07 18:58:00,50.2,36.5,28.47,ESE,109,9.0,10.1,59,0.00,,,-99.99,FreeWX-Wi 1.01,2013-04-07 23:58:00,
2013-04-07 19:03:00,50.2,36.5,28.47,ESE,109,9.0,11.0,59,0.00,,,-99.99,FreeWX-Wi 1.01,2013-04-08 00:03:00,
2013-04-07 19:08:00,50.2,36.9,28.47,ESE,110,8.0,8.7,60,0.00,,,-99.99,FreeWX-Wi 1.01,2013-04-08 00:08:00,
2013-04-07 19:13:00,50.2,36.9,28.47,ESE,110,8.0,10.5,60,0.00,,,-99.99,FreeWX-Wi 1.01,2013-04-08 00:13:00,
2013-04-07 19:18:00,50.0,37.0,28.47,ESE,111,8.0,10.1,61,0.00,,,-99.99,FreeWX-Wi 1.01,2013-04-08 00:18:00,
2013-04-07 19:23:00,49.8,37.4,28.47,ESE,112,8.0,9.2,62,0.00,,,-99.99,FreeWX-Wi 1.01,2013-04-08 00:23:00,
2013-04-07 19:28:00,49.6,37.6,28.47,ESE,113,8.0,10.1,63,0.00,,,-99.99,FreeWX-Wi 1.01,2013-04-08 00:28:00,
2013-04-07 19:33:00,49.6,37.2,28.47,ESE,114,8.0,11.0,62,0.00,,,-99.99,FreeWX-Wi 1.01,2013-04-08 00:33:00,
2013-04-07 19:38:00,49.6,37.6,28.47,ESE,115,8.0,10.5,63,0.00,,,-99.99,FreeWX-Wi 1.01,2013-04-08 00:38:00,
2013-04-07 19:43:00,49.5,37.8,28.47,ESE,118,8.0,10.5,64,0.00,,,-99.99,FreeWX-Wi 1.01,2013-04-08 00:43:00,
2013-04-07 19:54:00,49.1,38.7,28.47,ESE,119,8.0,8.7,67,0.00,,,-99.99,FreeWX-Wi 1.01,2013-04-08 00:54:00,
2013-04-07 19:59:00,48.9,38.8,28.47,ESE,120,8.0,8.7,68,0.00,,,-99.99,FreeWX-Wi 1.01,2013-04-08 00:59:00,
2013-04-07 20:09:00,49.1,39.0,28.47,ESE,119,8.0,10.5,68,0.00,,,-99.99,FreeWX-Wi 1.01,2013-04-08 01:09:00,
2013-04-07 20:15:00,49.1,38.7,28.47,ESE,119,8.0,12.3,67,0.00,,,-99.99,FreeWX-Wi 1.01,2013-04-08 01:15:00,
2013-04-07 20:20:00,49.3,38.5,28.47,ESE,119,8.0,12.3,66,0.00,,,-99.99,FreeWX-Wi 1.01,2013-04-08 01:20:00,
2013-04-07 20:25:00,49.3,38.5,28.47,ESE,119,8.0,10.1,66,0.00,,,-99.99,FreeWX-Wi 1.01,2013-04-08 01:25:00,
2013-04-07 20:30:00,49.1,38.3,28.47,ESE,118,8.0,10.5,66,0.00,,,-99.99,FreeWX-Wi 1.01,2013-04-08 01:30:00,
2013-04-07 20:35:00,49.3,37.6,28.47,ESE,117,8.0,11.0,64,0.00,,,-99.99,FreeWX-Wi 1.01,2013-04-08 01:35:00,
2013-04-07 20:40:00,49.5,37.4,28.47,ESE,116,8.0,10.1,63,0.00,,,-99.99,FreeWX-Wi 1.01,2013-04-08 01:40:00,
2013-04-07 20:45:00,49.3,37.2,28.47,ESE,115,8.0,8.7,63,0.00,,,-99.99,FreeWX-Wi 1.01,2013-04-08 01:45:00,
2013-04-07 20:50:00,49.3,37.2,28.47,ESE,112,8.0,8.7,63,0.00,,,-99.99,FreeWX-Wi 1.01,2013-04-08 01:50:00,
2013-04-07 20:55:00,49.3,37.6,28.47,ESE,109,8.0,11.0,64,0.00,,,-99.99,FreeWX-Wi 1.01,2013-04-08 01:55:00,
2013-04-07 21:00:00,49.3,37.6,28.47,ESE,109,8.0,11.0,64,0.00,,,-99.99,FreeWX-Wi 1.01,2013-04-08 02:00:00,
2013-04-07 21:05:00,49.3,37.6,28.47,ESE,108,8.0,8.7,64,0.00,,,-99.99,FreeWX-Wi 1.01,2013-04-08 02:05:00,
2013-04-07 21:10:00,49.1,37.4,28.47,ESE,107,7.0,7.0,64,0.00,,,-99.99,FreeWX-Wi 1.01,2013-04-08 02:10:00,
2013-04-07 21:16:00,49.1,37.4,28.47,ESE,108,6.0,6.0,64,0.00,,,-99.99,FreeWX-Wi 1.01,2013-04-08 02:16:00,
2013-04-07 21:21:00,48.9,37.8,28.50,ESE,106,5.0,5.0,65,0.00,,,-99.99,FreeWX-Wi 1.01,2013-04-08 02:21:00,
2013-04-07 21:26:00,48.9,37.8,28.50,East,94,4.0,4.0,65,0.00,,,-99.99,FreeWX-Wi 1.01,2013-04-08 02:26:00,
2013-04-07 21:31:00,48.7,38.3,28.50,ENE,73,3.0,4.0,67,0.00,,,-99.99,FreeWX-Wi 1.01,2013-04-08 02:31:00,
2013-04-07 21:47:00,47.8,39.9,28.50,NNE,17,3.0,8.1,74,0.00,,,-99.99,FreeWX-Wi 1.01,2013-04-08 02:47:00,
2013-04-07 21:52:00,47.8,40.3,28.47,NNE,14,4.0,8.1,75,0.00,,,-99.99,FreeWX-Wi 1.01,2013-04-08 02:52:00,
2013-04-07 21:57:00,47.8,39.9,28.47,NNE,19,5.0,11.0,74,0.00,,,-99.99,FreeWX-Wi 1.01,2013-04-08 02:57:00,
2013-04-07 22:02:00,48.2,39.9,28.47,NNE,27,6.0,8.7,73,0.00,,,-99.99,FreeWX-Wi 1.01,2013-04-08 03:02:00,
2013-04-07 22:07:00,47.8,39.9,28.47,NNE,33,5.0,6.3,74,0.00,,,-99.99,FreeWX-Wi 1.01,2013-04-08 03:07:00,
2013-04-07 22:12:00,48.2,39.6,28.47,NE,37,5.0,10.5,72,0.00,,,-99.99,FreeWX-Wi 1.01,2013-04-08 03:12:00,
2013-04-07 22:17:00,48.4,39.0,28.44,NE,44,5.0,13.2,70,0.00,,,-99.99,FreeWX-Wi 1.01,2013-04-08 03:17:00,
2013-04-07 22:22:00,48.4,39.4,28.44,NE,50,4.0,11.0,71,0.00,,,-99.99,FreeWX-Wi 1.01,2013-04-08 03:22:00,
2013-04-07 22:27:00,47.8,39.6,28.44,NE,53,4.0,7.2,73,0.00,,,-99.99,FreeWX-Wi 1.01,2013-04-08 03:27:00,
2013-04-07 22:33:00,48.0,39.0,28.44,NE,46,4.0,11.0,71,0.00,,,-99.99,FreeWX-Wi 1.01,2013-04-08 03:33:00,
2013-04-07 22:38:00,48.0,38.7,28.44,NE,40,4.0,5.8,70,0.00,,,-99.99,FreeWX-Wi 1.01,2013-04-08 03:38:00,
2013-04-07 22:43:00,47.8,39.6,28.44,NE,37,5.0,10.1,73,0.00,,,-99.99,FreeWX-Wi 1.01,2013-04-08 03:43:00,
2013-04-07 22:48:00,46.8,40.6,28.44,NNE,32,5.0,11.0,79,0.00,,,-99.99,FreeWX-Wi 1.01,2013-04-08 03:48:00,
2013-04-07 22:53:00,46.2,41.4,28.44,NNE,26,6.0,10.5,83,0.00,,,-99.99,FreeWX-Wi 1.01,2013-04-08 03:53:00,
2013-04-07 22:58:00,46.0,41.5,28.44,NNE,19,6.0,8.1,84,0.00,,,-99.99,FreeWX-Wi 1.01,2013-04-08 03:58:00,
2013-04-07 23:04:00,46.0,41.2,28.41,NNE,22,6.0,10.5,83,0.00,,,-99.99,FreeWX-Wi 1.01,2013-04-08 04:04:00,
2013-04-07 23:09:00,46.2,40.6,28.41,NNE,30,6.0,8.3,81,0.00,,,-99.99,FreeWX-Wi 1.01,2013-04-08 04:09:00,
2013-04-07 23:14:00,46.2,40.5,28.41,NE,38,6.0,8.1,80,0.04,,,-99.99,FreeWX-Wi 1.01,2013-04-08 04:14:00,
2013-04-07 23:19:00,46.2,40.1,28.41,NE,47,6.0,8.1,79,0.04,,,-99.99,FreeWX-Wi 1.01,2013-04-08 04:19:00,
2013-04-07 23:24:00,46.2,39.7,28.41,ENE,59,5.0,5.0,78,0.04,,,-99.99,FreeWX-Wi 1.01,2013-04-08 04:24:00,
2013-04-07 23:29:00,46.0,39.9,28.41,ENE,62,5.0,8.7,79,0.04,,,-99.99,FreeWX-Wi 1.01,2013-04-08 04:29:00,
2013-04-07 23:34:00,45.9,40.3,28.41,NE,52,5.0,10.5,81,0.04,,,-99.99,FreeWX-Wi 1.01,2013-04-08 04:34:00,
2013-04-07 23:45:00,45.3,40.5,28.41,NNE,33,5.0,8.7,83,0.04,,,-99.99,FreeWX-Wi 1.01,2013-04-08 04:45:00,
2013-04-07 23:50:00,45.1,40.6,28.41,NNE,32,5.0,8.1,84,0.04,,,-99.99,FreeWX-Wi 1.01,2013-04-08 04:50:00,
2013-04-07 23:55:00,45.1,40.3,28.41,NNE,30,5.0,5.0,83,0.04,,,-99.99,FreeWX-Wi 1.01,2013-04-08 04:55:00,